[[{"header":{"parameterUnit":"m.s-1","parameterCategory":2,"la1":30.2991,"la2":30.254,"lo1":-89.0895,"lo2":-89.0444,"dy":0.0017,"dx":0.0017,"nx":28,"ny":28,"refTime":"2023-09-18T21:00:00:Z","depth":"0","parameterNumber":2,"parameterNumberName":"U-component_of_CURRENTS"},"data":[0,0,0,0,0,0,0,0,0,0,0,0,0,0,0,0,0,0,0,0,0,0,0,0,0,0,0,0,0,0,0,0,0,0,0,0,0,0,0,0,0,0,0,0,0,0,0,0,0,0,0,0,0,0,0,0,0,0,-0.2465,-0.2465,0,-0.2489,-0.2489,-0.2489,-0.2454,-0.2453,-0.2452,-0.2451,-0.2448,-0.2449,-0.2449,0,0,0,0,0,0,0,0,0,0,0,0,0,-0.2382,-0.2384,-0.2465,-0.2465,-0.2466,-0.2489,-0.2489,-0.2489,-0.2454,-0.2453,-0.2452,-0.2451,-0.2448,-0.2449,-0.245,0,0,0,0,0,0,0,0,0,0,0,0,0,-0.2411,-0.2384,-0.2465,-0.2453,-0.2453,-0.2489,-0.2489,-0.2489,-0.2455,-0.2453,-0.2452,-0.245,-0.2447,-0.2448,-0.245,-0.2487,0,0,-0.2453,-0.2454,0,0,0,0,0,0,0,0,-0.2409,-0.2414,-0.2454,-0.2454,-0.2454,-0.2469,-0.2459,-0.2488,-0.2455,-0.2451,-0.2451,-0.245,-0.2455,-0.2456,-0.246,-0.2487,-0.2487,-0.2454,-0.2454,-0.2455,-0.2455,0,0,0,0,0,0,0,-0.2407,-0.2412,-0.2472,-0.2455,-0.2455,-0.2445,-0.2447,-0.2464,-0.2459,-0.2451,-0.245,-0.2457,-0.2454,-0.2459,-0.246,-0.2487,-0.2454,-0.2455,-0.2455,-0.2456,-0.2494,-0.2494,0,0,0,0,0,0,-0.2412,-0.2411,-0.2471,-0.2473,-0.243,-0.2448,-0.245,-0.2464,-0.2459,-0.2458,-0.2458,-0.2455,-0.2458,-0.2459,-0.246,-0.2471,-0.2455,-0.2456,-0.2457,-0.2493,-0.2494,-0.2494,0,0,0,0,0,0,-0.241,-0.2418,-0.247,-0.2444,-0.245,-0.2451,-0.2466,-0.2465,-0.2464,-0.2465,-0.2462,-0.2458,-0.2457,-0.2458,-0.2465,-0.2471,-0.2457,-0.2458,-0.2493,-0.2493,-0.2494,-0.2514,0,0,0,0,0,0,-0.2408,-0.2417,-0.2424,-0.2445,-0.2452,-0.2488,-0.2468,-0.2467,-0.2473,-0.2469,-0.2465,-0.2463,-0.2456,-0.2463,-0.2466,-0.2473,-0.2459,-0.2493,-0.2493,-0.2494,-0.2513,-0.2515,-0.2516,0,0,0,0,0,-0.2405,-0.2422,-0.2425,-0.2432,-0.2464,-0.2489,-0.2492,-0.2485,-0.2474,-0.2478,-0.247,-0.2463,-0.2467,-0.2465,-0.2468,-0.2475,-0.2492,-0.2493,-0.2494,-0.2512,-0.2514,-0.2516,0,0,0,0,0,0,-0.2385,-0.2421,-0.2424,-0.2449,-0.2467,-0.2484,-0.2487,-0.249,-0.2489,-0.248,-0.2474,-0.2473,-0.2477,-0.2478,-0.2474,-0.2486,-0.2477,-0.2478,-0.2489,-0.2492,-0.2493,-0.2492,-0.246,0,0,0,0,0,-0.2388,-0.2406,-0.2439,-0.2454,-0.2466,-0.2478,-0.2487,-0.2488,-0.2494,-0.2491,-0.2489,-0.2485,-0.2486,-0.2489,-0.2488,-0.2507,-0.2498,-0.2511,-0.2512,-0.2514,-0.2515,-0.2505,-0.2506,-0.2496,-0.2496,-0.2496,0,0,-0.2382,-0.2404,-0.2413,-0.245,-0.246,-0.2483,-0.2478,-0.2494,-0.2506,-0.2494,-0.2499,-0.2493,-0.2491,-0.2499,-0.2502,-0.2499,-0.2513,-0.2515,-0.2516,-0.2516,-0.2506,-0.2506,-0.2507,-0.2496,-0.2496,-0.2496,0,0,-0.2379,-0.2402,-0.2417,-0.2439,-0.2466,-0.2481,-0.2488,-0.251,-0.2511,-0.2528,-0.2512,-0.251,-0.2522,-0.2515,-0.2515,-0.2533,-0.252,-0.2532,-0.2546,-0.2537,-0.2537,-0.2538,-0.253,-0.2529,-0.2536,-0.2536,-0.2536,0,-0.2369,-0.2395,-0.2422,-0.2445,-0.2461,-0.2482,-0.2501,-0.2516,-0.2533,-0.254,-0.2528,-0.2534,-0.2529,-0.2537,-0.2535,-0.2537,-0.2529,-0.2538,-0.2539,-0.2539,-0.2539,-0.2531,-0.253,-0.2537,-0.2537,-0.2537,-0.2537,0,-0.2379,-0.2401,-0.2412,-0.2447,-0.2472,-0.249,-0.2525,-0.2542,-0.2548,-0.2559,-0.2567,-0.256,-0.256,-0.2559,-0.2552,-0.2554,-0.2546,-0.254,-0.2533,-0.2541,-0.2532,-0.2531,-0.2539,-0.2538,-0.2538,-0.2538,0,0,-0.2345,-0.2407,-0.2407,-0.2428,-0.2475,-0.2497,-0.2529,-0.2562,-0.2581,-0.2589,-0.2605,-0.2599,-0.2591,-0.2589,-0.258,-0.2573,-0.2564,-0.2557,-0.2556,-0.2549,-0.2543,-0.2469,-0.2461,-0.2556,-0.2556,-0.2556,-0.2537,0,-0.2337,-0.2377,-0.2411,-0.2445,-0.2471,-0.2511,-0.2542,-0.2577,-0.2597,-0.2619,-0.2618,-0.2623,-0.2605,-0.2602,-0.2593,-0.2575,-0.2562,-0.257,-0.2536,-0.2535,-0.2468,-0.2457,-0.2351,-0.2319,-0.2535,-0.2535,-0.2535,0,-0.2325,-0.236,-0.2392,-0.2456,-0.247,-0.2494,-0.2548,-0.2578,-0.2622,-0.2638,-0.2647,-0.2648,-0.2645,-0.2623,-0.2596,-0.2602,-0.257,-0.2552,-0.2551,-0.2473,-0.2458,-0.2345,-0.2308,-0.2293,-0.2533,-0.2533,-0.2533,0,-0.228,-0.2341,-0.2364,-0.2385,-0.2462,-0.2482,-0.2518,-0.2573,-0.2595,-0.2641,-0.2657,-0.2664,-0.2658,-0.2632,-0.2591,-0.2595,-0.2554,-0.2557,-0.2461,-0.2456,-0.2353,-0.2339,-0.2295,-0.2524,-0.2524,-0.2524,-0.2524,0,-0.2255,-0.2272,-0.2344,-0.236,-0.2386,-0.2456,-0.2483,-0.2527,-0.2582,-0.2601,-0.2649,-0.2654,-0.2656,-0.2636,-0.26,-0.252,-0.2558,-0.2455,-0.244,-0.2357,-0.2344,-0.2315,-0.2334,-0.2524,-0.2524,-0.2524,-0.2524,0,-0.2187,-0.2239,-0.2266,-0.2343,-0.236,-0.2375,-0.2442,-0.2468,-0.2537,-0.2564,-0.2576,-0.2636,-0.2613,-0.2602,-0.2562,-0.2515,-0.241,-0.2418,-0.2319,-0.2292,-0.2182,-0.2206,-0.2139,-0.208,-0.2317,-0.2315,-0.2313,0,-0.2152,-0.2158,-0.2221,-0.2231,-0.2256,-0.2295,-0.232,-0.2413,-0.2445,-0.2536,-0.2541,-0.2558,-0.2535,-0.2469,-0.2398,-0.2323,-0.2319,-0.2187,-0.2168,-0.2151,-0.2168,-0.2186,-0.2143,-0.2048,-0.2045,-0.2042,-0.2039,0,-0.2069,-0.2087,-0.2108,-0.2132,-0.2154,-0.2183,-0.2234,-0.2256,-0.2366,-0.2399,-0.2432,-0.2426,-0.2386,-0.2269,-0.2188,-0.213,-0.2128,-0.212,-0.2126,-0.1965,-0.1959,-0.1903,-0.2103,-0.2012,-0.2015,-0.2017,-0.2018,-0.2019,-0.1981,-0.1973,-0.1999,-0.2005,-0.2035,-0.2053,-0.2035,-0.2109,-0.2135,-0.2157,-0.2245,-0.2203,-0.2163,-0.2031,-0.198,-0.1861,-0.1917,-0.1804,-0.184,-0.1865,-0.1782,-0.1918,-0.1796,-0.1797,-0.1798,-0.18,-0.1801,0,-0.1866,-0.1869,-0.1874,-0.1881,-0.1861,-0.1921,-0.1954,-0.1919,-0.1899,-0.1956,-0.1946,-0.1919,-0.1807,-0.1792,-0.1688,-0.1611,-0.1581,-0.158,-0.1591,-0.1563,-0.1691,-0.1652,-0.1463,-0.1463,-0.1463,-0.1463,-0.1463,-0.1463,-0.1807,-0.1768,-0.1774,-0.1695,-0.1697,-0.1629,-0.1615,-0.1585,-0.1596,-0.1551,-0.1556,-0.1605,-0.161,-0.1697,-0.1589,-0.1508,-0.1484,-0.142,-0.1463,-0.1575,-0.16,-0.1624,-0.159,-0.1392,-0.1392,-0.1268,-0.1267,-0.1267]},{"header":{"parameterUnit":"m.s-1","parameterCategory":2,"la1":30.2991,"la2":30.254,"lo1":-89.0895,"lo2":-89.0444,"dy":0.0017,"dx":0.0017,"nx":28,"ny":28,"refTime":"2023-09-18T21:00:00:Z","depth":"0","parameterNumber":3,"parameterNumberName":"V-component_of_CURRENTS"},"data":[0,0,0,0,0,0,0,0,0,0,0,0,0,0,0,0,0,0,0,0,0,0,0,0,0,0,0,0,0,0,0,0,0,0,0,0,0,0,0,0,0,0,0,0,0,0,0,0,0,0,0,0,0,0,0,0,0,0,-0.0186,-0.0185,0,-0.0119,-0.0118,-0.0117,-0.0059,-0.0058,-0.0058,-0.0057,0.0064,0.0067,0.007,0,0,0,0,0,0,0,0,0,0,0,0,0,-0.0216,-0.0216,-0.0186,-0.0185,-0.0184,-0.0119,-0.0118,-0.0117,-0.0059,-0.0058,-0.0058,-0.0057,0.0063,0.0067,0.007,0,0,0,0,0,0,0,0,0,0,0,0,0,-0.018,-0.0216,-0.0186,-0.0149,-0.0145,-0.0119,-0.0118,-0.0117,-0.0059,-0.0058,-0.0057,-0.0057,0.0062,0.0066,0.007,0.008,0,0,0.0083,0.0085,0,0,0,0,0,0,0,0,-0.0182,-0.0179,-0.0155,-0.0151,-0.0147,-0.0098,-0.0084,-0.0049,-0.0059,-0.009,-0.0057,-0.0056,0.0013,0.0022,0.0034,0.0086,0.0091,0.0083,0.0086,0.0088,0.0089,0,0,0,0,0,0,0,-0.0185,-0.0181,-0.0158,-0.0154,-0.0149,-0.0119,-0.0114,-0.0077,-0.0041,-0.0087,-0.0083,-0.0079,0.0016,0.003,0.0038,0.0093,0.0083,0.0087,0.0089,0.0091,0.0172,0.0172,0,0,0,0,0,0,-0.02,-0.0184,-0.016,-0.0156,-0.0165,-0.012,-0.0113,-0.0113,-0.0042,-0.0032,-0.0079,-0.0076,0.0023,0.0033,0.0042,0.0066,0.0088,0.0091,0.0094,0.0172,0.0172,0.0171,0,0,0,0,0,0,-0.0201,-0.0199,-0.0162,-0.0169,-0.0163,-0.0121,-0.012,-0.0112,-0.0098,-0.0037,-0.0025,-0.0074,0.0024,0.0036,0.007,0.0071,0.0093,0.0097,0.0173,0.0172,0.0172,0.0109,0,0,0,0,0,0,-0.0202,-0.02,-0.0207,-0.0171,-0.0163,-0.0153,-0.0121,-0.0111,-0.0097,-0.0092,-0.0029,-0.0017,0.0025,0.0063,0.0074,0.0077,0.01,0.0173,0.0172,0.0172,0.0111,0.0106,0.0102,0,0,0,0,0,-0.0204,-0.0219,-0.0208,-0.0205,-0.0174,-0.0154,-0.0147,-0.0113,-0.0098,-0.0096,-0.0055,-0.0019,0.0067,0.0066,0.0079,0.0083,0.0173,0.0173,0.0172,0.0113,0.0107,0.0102,0,0,0,0,0,0,-0.0238,-0.0214,-0.02,-0.0208,-0.0185,-0.0145,-0.0144,-0.012,-0.0087,-0.0082,-0.0024,-0.0009,0.002,0.0057,0.0054,0.0104,0.0127,0.0128,0.0078,0.0073,0.0068,0.0057,0.0104,0,0,0,0,0,-0.0251,-0.0255,-0.0223,-0.0231,-0.0222,-0.0185,-0.0174,-0.0151,-0.0117,-0.0101,-0.0058,-0.0012,0.0026,0.0052,0.0089,0.0116,0.0157,0.0127,0.0122,0.0118,0.0117,0.017,0.017,0.0169,0.0169,0.0169,0,0,-0.0268,-0.0255,-0.0258,-0.0239,-0.0218,-0.0214,-0.0176,-0.0165,-0.0156,-0.0093,-0.0071,-0.003,0.0027,0.0057,0.0074,0.009,0.0139,0.0117,0.0113,0.0115,0.0169,0.0169,0.0169,0.0168,0.0169,0.0169,0,0,-0.0306,-0.0292,-0.0308,-0.0291,-0.0268,-0.0242,-0.0242,-0.0204,-0.0182,-0.0158,-0.0111,-0.007,-0.0015,0.003,0.006,0.0051,0.0108,0.0061,0.0037,0.0088,0.0088,0.0089,0.014,0.0146,0.0065,0.0065,0.0065,0,-0.0328,-0.0341,-0.0309,-0.0316,-0.0309,-0.0259,-0.0271,-0.0241,-0.0196,-0.0177,-0.016,-0.0073,-0.0026,0.0022,0.0019,0.0042,0.0077,0.0053,0.0082,0.0084,0.0086,0.0138,0.0145,0.0062,0.0062,0.0062,0.0063,0,-0.0371,-0.0381,-0.0389,-0.038,-0.0367,-0.0369,-0.0325,-0.0307,-0.0275,-0.0237,-0.019,-0.0124,-0.0069,-0.0048,-0.0015,0.0024,0.0046,0.0064,0.0094,0.0082,0.0137,0.0146,0.0057,0.0058,0.0059,0.006,0,0,-0.0422,-0.0422,-0.0424,-0.0435,-0.0402,-0.0399,-0.0381,-0.0349,-0.0334,-0.0279,-0.0252,-0.0181,-0.0137,-0.0101,-0.0048,-0.0,0.0047,0.0033,0.0037,0.008,0.0159,0.0206,0.022,0.0067,0.0069,0.0069,0.0191,0,-0.0467,-0.0505,-0.0483,-0.0511,-0.0527,-0.0476,-0.0467,-0.0427,-0.0374,-0.0332,-0.025,-0.0204,-0.0157,-0.0129,-0.0075,0.0019,0.0067,0.0012,0.0167,0.0172,0.0213,0.0231,0.0257,0.037,0.02,0.0202,0.0203,0,-0.0513,-0.0534,-0.0576,-0.0585,-0.0586,-0.0587,-0.0555,-0.0536,-0.0455,-0.0414,-0.034,-0.0271,-0.0182,-0.015,0.0007,-0.0031,0.0053,0.0125,0.0131,0.0204,0.0236,0.0357,0.0394,0.0516,0.0217,0.0216,0.0215,0,-0.0569,-0.0596,-0.0635,-0.0637,-0.0636,-0.0638,-0.0625,-0.0561,-0.0543,-0.0452,-0.0421,-0.0308,-0.024,-0.0126,0.0033,0.0019,0.0207,0.0209,0.033,0.0334,0.0403,0.0411,0.0576,0.0307,0.0307,0.0307,0.0306,0,-0.0625,-0.0655,-0.0667,-0.0689,-0.073,-0.0698,-0.0705,-0.067,-0.061,-0.0579,-0.0465,-0.0404,-0.0232,-0.0098,0.0026,0.0221,0.0209,0.0335,0.0373,0.0382,0.0386,0.0534,0.0577,0.0311,0.031,0.0309,0.0308,0,-0.0679,-0.0688,-0.0736,-0.0754,-0.076,-0.0783,-0.0771,-0.0768,-0.0699,-0.0649,-0.0625,-0.0465,-0.0275,-0.0095,0.0117,0.0224,0.048,0.0457,0.0459,0.0494,0.0705,0.0743,0.0945,0.1026,0.0606,0.0608,0.061,0,-0.0711,-0.0743,-0.0789,-0.082,-0.0829,-0.0851,-0.0866,-0.082,-0.0802,-0.0676,-0.0655,-0.0464,-0.0305,0.0031,0.0259,0.0501,0.0586,0.0648,0.0624,0.0736,0.0806,0.0825,0.0879,0.0693,0.0695,0.0697,0.0698,0,-0.0769,-0.0782,-0.0823,-0.089,-0.0921,-0.0954,-0.0957,-0.096,-0.0884,-0.0811,-0.0669,-0.0529,-0.0186,0.0128,0.044,0.0572,0.0744,0.0691,0.0815,0.0898,0.0925,0.1014,0.0591,0.0714,0.0713,0.0711,0.0711,0.071,-0.0801,-0.0847,-0.0897,-0.0955,-0.0998,-0.1034,-0.1043,-0.1012,-0.0966,-0.0827,-0.0687,-0.044,0.0001,0.0463,0.0627,0.0947,0.0902,0.1021,0.1061,0.1074,0.1144,0.0756,0.0913,0.0912,0.0912,0.0912,0.0911,0,-0.084,-0.0889,-0.0955,-0.1023,-0.1072,-0.1077,-0.1089,-0.1057,-0.0977,-0.0812,-0.063,-0.0143,0.0291,0.0674,0.1147,0.1309,0.1333,0.1374,0.1407,0.1448,0.1121,0.1116,0.1316,0.1315,0.1315,0.1315,0.1315,0.1315,-0.0861,-0.0934,-0.0973,-0.1064,-0.1105,-0.1134,-0.1133,-0.1052,-0.0927,-0.0626,-0.0347,-0.0113,0.043,0.12,0.1621,0.1643,0.178,0.1753,0.1837,0.1601,0.1571,0.1542,0.155,0.1836,0.1837,0.2148,0.2151,0.2154]}],[{"header":{"parameterUnit":"m.s-1","parameterCategory":2,"la1":30.2991,"la2":30.254,"lo1":-89.0895,"lo2":-89.0444,"dy":0.0017,"dx":0.0017,"nx":28,"ny":28,"refTime":"2023-09-18T21:00:00:Z","depth":"2","parameterNumber":2,"parameterNumberName":"U-component_of_CURRENTS"},"data":[0,0,0,0,0,0,0,0,0,0,0,0,0,0,0,0,0,0,0,0,0,0,0,0,0,0,0,0,0,0,0,0,0,0,0,0,0,0,0,0,0,0,0,0,0,0,0,0,0,0,0,0,0,0,0,0,0,0,-0.2201,-0.2201,0,-0.2232,-0.2232,-0.2232,-0.2208,-0.2207,-0.2206,-0.2205,-0.2215,-0.2216,-0.2217,0,0,0,0,0,0,0,0,0,0,0,0,0,-0.2119,-0.212,-0.2201,-0.2201,-0.2202,-0.2232,-0.2232,-0.2232,-0.2208,-0.2207,-0.2206,-0.2205,-0.2214,-0.2215,-0.2217,0,0,0,0,0,0,0,0,0,0,0,0,0,-0.215,-0.212,-0.22,-0.2195,-0.2195,-0.2232,-0.2232,-0.2232,-0.2208,-0.2207,-0.2206,-0.2204,-0.2214,-0.2215,-0.2217,-0.2251,0,0,-0.2221,-0.2222,0,0,0,0,0,0,0,0,-0.2148,-0.2153,-0.2195,-0.2196,-0.2196,-0.2217,-0.2206,-0.2238,-0.2208,-0.2201,-0.2205,-0.2204,-0.2216,-0.2217,-0.2223,-0.2251,-0.2252,-0.2222,-0.2223,-0.2223,-0.2224,0,0,0,0,0,0,0,-0.2146,-0.2151,-0.221,-0.2196,-0.2196,-0.2191,-0.2193,-0.2212,-0.2212,-0.2201,-0.22,-0.2208,-0.2215,-0.2221,-0.2223,-0.2252,-0.2222,-0.2223,-0.2224,-0.2224,-0.2271,-0.2271,0,0,0,0,0,0,-0.2149,-0.215,-0.221,-0.2212,-0.2171,-0.2193,-0.2196,-0.2209,-0.2213,-0.2213,-0.2209,-0.2207,-0.2219,-0.2221,-0.2223,-0.2241,-0.2223,-0.2225,-0.2225,-0.227,-0.2271,-0.2271,0,0,0,0,0,0,-0.2147,-0.2154,-0.2208,-0.2183,-0.2189,-0.2196,-0.2211,-0.2211,-0.2214,-0.2219,-0.2218,-0.2213,-0.2218,-0.2221,-0.2233,-0.2241,-0.2225,-0.2227,-0.227,-0.2271,-0.2271,-0.2291,0,0,0,0,0,0,-0.2145,-0.2154,-0.2162,-0.2183,-0.2191,-0.2229,-0.2212,-0.2212,-0.2222,-0.2219,-0.2223,-0.2222,-0.2217,-0.2231,-0.2235,-0.2243,-0.2228,-0.227,-0.227,-0.2271,-0.229,-0.2292,-0.2294,0,0,0,0,0,-0.2142,-0.2158,-0.2162,-0.2169,-0.2203,-0.223,-0.2233,-0.2231,-0.2224,-0.2229,-0.2227,-0.2222,-0.2237,-0.2233,-0.2237,-0.2246,-0.2269,-0.227,-0.2271,-0.2289,-0.2291,-0.2294,0,0,0,0,0,0,-0.2123,-0.2159,-0.2163,-0.2188,-0.2207,-0.2226,-0.2232,-0.2237,-0.2242,-0.2236,-0.2234,-0.2234,-0.2244,-0.2246,-0.2242,-0.226,-0.225,-0.2252,-0.2262,-0.2265,-0.2267,-0.2264,-0.2229,0,0,0,0,0,-0.2127,-0.2145,-0.2177,-0.2193,-0.2206,-0.2221,-0.2231,-0.2235,-0.2245,-0.2245,-0.2248,-0.2249,-0.2253,-0.2259,-0.2262,-0.2283,-0.2274,-0.2289,-0.2291,-0.2293,-0.2293,-0.2283,-0.2284,-0.2274,-0.2274,-0.2273,0,0,-0.2123,-0.2144,-0.2154,-0.219,-0.2202,-0.2226,-0.2223,-0.2242,-0.2257,-0.2248,-0.2261,-0.2258,-0.2259,-0.2271,-0.2277,-0.2274,-0.2291,-0.2294,-0.2295,-0.2294,-0.2284,-0.2284,-0.2285,-0.2274,-0.2274,-0.2274,0,0,-0.2122,-0.2145,-0.216,-0.2184,-0.2212,-0.2227,-0.2236,-0.2261,-0.2264,-0.2287,-0.2274,-0.2276,-0.2294,-0.2289,-0.2291,-0.2311,-0.23,-0.2313,-0.2326,-0.2317,-0.2318,-0.2318,-0.231,-0.2309,-0.2317,-0.2317,-0.2317,0,-0.2114,-0.2141,-0.2167,-0.2191,-0.2208,-0.223,-0.225,-0.2268,-0.229,-0.2298,-0.229,-0.2303,-0.2301,-0.2312,-0.2311,-0.2315,-0.2308,-0.2318,-0.2319,-0.232,-0.232,-0.2311,-0.231,-0.2318,-0.2318,-0.2318,-0.2318,0,-0.2128,-0.2151,-0.2162,-0.2199,-0.2224,-0.2245,-0.2279,-0.2299,-0.2308,-0.2321,-0.2334,-0.233,-0.2335,-0.2335,-0.233,-0.2333,-0.2326,-0.232,-0.2313,-0.2322,-0.2312,-0.2311,-0.232,-0.2319,-0.2319,-0.2319,0,0,-0.2097,-0.2159,-0.216,-0.2183,-0.2231,-0.2254,-0.2287,-0.232,-0.2341,-0.2354,-0.2371,-0.2371,-0.2365,-0.2365,-0.2358,-0.2351,-0.2342,-0.2337,-0.2336,-0.2328,-0.2322,-0.225,-0.2242,-0.2336,-0.2336,-0.2335,-0.2315,0,-0.2092,-0.2136,-0.2168,-0.2206,-0.2233,-0.2272,-0.2304,-0.2339,-0.2361,-0.2386,-0.2385,-0.2395,-0.2379,-0.2378,-0.2369,-0.2353,-0.234,-0.2348,-0.2315,-0.2314,-0.2248,-0.2238,-0.2077,-0.2039,-0.2314,-0.2314,-0.2314,0,-0.2085,-0.212,-0.2155,-0.222,-0.2234,-0.226,-0.2314,-0.2345,-0.2389,-0.2406,-0.2417,-0.242,-0.2419,-0.2398,-0.2372,-0.2379,-0.2348,-0.2331,-0.2329,-0.2253,-0.2239,-0.2074,-0.2027,-0.2311,-0.2312,-0.2312,-0.2312,0,-0.2044,-0.2106,-0.2132,-0.2155,-0.2232,-0.2253,-0.2289,-0.2343,-0.2365,-0.2412,-0.2428,-0.2436,-0.2432,-0.2407,-0.2368,-0.2372,-0.2331,-0.2334,-0.224,-0.2235,-0.2086,-0.2067,-0.2301,-0.2301,-0.2301,-0.2302,-0.2302,0,-0.2024,-0.2045,-0.2117,-0.2136,-0.2165,-0.2233,-0.2262,-0.2306,-0.2359,-0.2376,-0.2424,-0.2427,-0.2431,-0.2411,-0.2377,-0.2298,-0.2335,-0.2234,-0.222,-0.2088,-0.2071,-0.2298,-0.2298,-0.2301,-0.2301,-0.2301,-0.2301,0,-0.1963,-0.2015,-0.2047,-0.2125,-0.2144,-0.2162,-0.2227,-0.2252,-0.232,-0.2344,-0.2356,-0.2412,-0.2389,-0.2379,-0.2339,-0.2293,-0.2239,-0.2197,-0.2044,-0.2011,-0.2152,-0.2153,-0.2102,-0.2099,-0.2097,-0.2095,-0.2093,0,-0.1932,-0.1943,-0.201,-0.2022,-0.2049,-0.209,-0.2114,-0.2203,-0.223,-0.2316,-0.2317,-0.2334,-0.2306,-0.2242,-0.2171,-0.2097,-0.2161,-0.1911,-0.1884,-0.2137,-0.2129,-0.2134,-0.2139,-0.17,-0.1695,-0.1691,-0.1688,0,-0.186,-0.188,-0.1905,-0.1932,-0.1956,-0.1984,-0.2031,-0.2048,-0.2148,-0.2175,-0.2196,-0.2187,-0.2148,-0.2001,-0.1926,-0.1863,-0.1916,-0.1829,-0.2119,-0.1777,-0.1756,-0.175,-0.1767,-0.1653,-0.1657,-0.1659,-0.1661,-0.1663,-0.1781,-0.1776,-0.1806,-0.1815,-0.1845,-0.1856,-0.1834,-0.1896,-0.1909,-0.1914,-0.2001,-0.1932,-0.1928,-0.1723,-0.1631,-0.1564,-0.1691,-0.1616,-0.1628,-0.1645,-0.1604,-0.158,-0.1436,-0.1438,-0.144,-0.1442,-0.1443,0,-0.1676,-0.1681,-0.1688,-0.1696,-0.1674,-0.1734,-0.1753,-0.1707,-0.1669,-0.1701,-0.1681,-0.1524,-0.1429,-0.1429,-0.1269,-0.1239,-0.1234,-0.119,-0.1183,-0.1218,-0.1249,-0.1189,-0.091,-0.0909,-0.0907,-0.0906,0,0,-0.1622,-0.1588,-0.1592,-0.1514,-0.1516,-0.1444,-0.1421,-0.1373,-0.136,-0.128,-0.1244,-0.1335,-0.1382,-0.1149,-0.1093,-0.0973,-0.1084,-0.0925,-0.135,-0.1376,-0.1405,-0.149,-0.1435,0,0,0,0,0]},{"header":{"parameterUnit":"m.s-1","parameterCategory":2,"la1":30.2991,"la2":30.254,"lo1":-89.0895,"lo2":-89.0444,"dy":0.0017,"dx":0.0017,"nx":28,"ny":28,"refTime":"2023-09-18T21:00:00:Z","depth":"2","parameterNumber":3,"parameterNumberName":"V-component_of_CURRENTS"},"data":[0,0,0,0,0,0,0,0,0,0,0,0,0,0,0,0,0,0,0,0,0,0,0,0,0,0,0,0,0,0,0,0,0,0,0,0,0,0,0,0,0,0,0,0,0,0,0,0,0,0,0,0,0,0,0,0,0,0,-0.023,-0.0229,0,-0.0168,-0.0167,-0.0167,-0.0114,-0.0114,-0.0113,-0.0113,-0.0,0.0002,0.0005,0,0,0,0,0,0,0,0,0,0,0,0,0,-0.026,-0.0259,-0.023,-0.0229,-0.0229,-0.0168,-0.0167,-0.0166,-0.0114,-0.0113,-0.0113,-0.0112,-0.0001,0.0002,0.0005,0,0,0,0,0,0,0,0,0,0,0,0,0,-0.0226,-0.0259,-0.023,-0.0196,-0.0193,-0.0169,-0.0167,-0.0166,-0.0114,-0.0113,-0.0113,-0.0112,-0.0002,0.0002,0.0005,0.0016,0,0,0.0017,0.0019,0,0,0,0,0,0,0,0,-0.0228,-0.0225,-0.0202,-0.0199,-0.0195,-0.0149,-0.0137,-0.0103,-0.0114,-0.0142,-0.0113,-0.0112,-0.0047,-0.0039,-0.0028,0.0021,0.0026,0.0018,0.002,0.0022,0.0023,0,0,0,0,0,0,0,-0.023,-0.0227,-0.0204,-0.0201,-0.0197,-0.017,-0.0165,-0.013,-0.0097,-0.014,-0.0136,-0.0132,-0.0044,-0.0032,-0.0025,0.0028,0.0017,0.0021,0.0023,0.0025,0.0099,0.0099,0,0,0,0,0,0,-0.0244,-0.0229,-0.0206,-0.0202,-0.0212,-0.017,-0.0164,-0.0163,-0.0098,-0.0089,-0.0133,-0.013,-0.0039,-0.0029,-0.002,0.0003,0.0022,0.0025,0.0027,0.0099,0.0099,0.0099,0,0,0,0,0,0,-0.0245,-0.0243,-0.0208,-0.0215,-0.0209,-0.0171,-0.017,-0.0163,-0.0149,-0.0094,-0.0083,-0.0128,-0.0038,-0.0026,0.0006,0.0008,0.0027,0.003,0.01,0.0099,0.0099,0.0047,0,0,0,0,0,0,-0.0246,-0.0244,-0.025,-0.0217,-0.0209,-0.0199,-0.0171,-0.0162,-0.0149,-0.0144,-0.0086,-0.0075,-0.0036,-0.0001,0.0009,0.0014,0.0033,0.01,0.01,0.0099,0.0049,0.0045,0.0041,0,0,0,0,0,-0.0248,-0.0261,-0.0251,-0.0248,-0.0219,-0.02,-0.0194,-0.0163,-0.0149,-0.0147,-0.011,-0.0076,0.0003,0.0002,0.0014,0.002,0.0101,0.01,0.0099,0.0051,0.0045,0.0041,0,0,0,0,0,0,-0.0279,-0.0256,-0.0244,-0.0251,-0.0229,-0.0192,-0.019,-0.0169,-0.0139,-0.0134,-0.008,-0.0067,-0.004,-0.0007,-0.0009,0.0038,0.0057,0.0059,0.0016,0.0012,0.0008,-0.0001,0.0037,0,0,0,0,0,-0.029,-0.0294,-0.0264,-0.0271,-0.0263,-0.0228,-0.0218,-0.0196,-0.0165,-0.0151,-0.0111,-0.0069,-0.0035,-0.001,0.0022,0.005,0.0087,0.0061,0.0056,0.0053,0.0053,0.0105,0.0106,0.0096,0.0096,0.0096,0,0,-0.0305,-0.0293,-0.0296,-0.0278,-0.0259,-0.0253,-0.022,-0.0209,-0.02,-0.0144,-0.0121,-0.0085,-0.0034,-0.0006,0.0011,0.0025,0.0074,0.0052,0.0048,0.0051,0.0104,0.0105,0.0106,0.0095,0.0096,0.0096,0,0,-0.0339,-0.0326,-0.034,-0.0324,-0.0302,-0.0278,-0.0278,-0.0243,-0.0222,-0.0199,-0.0157,-0.012,-0.007,-0.0027,-0.0,-0.0007,0.0045,0.0001,-0.0016,0.0034,0.0035,0.0037,0.0082,0.0088,0.0006,0.0006,0.0006,0,-0.0359,-0.037,-0.0341,-0.0346,-0.0338,-0.0294,-0.0302,-0.0274,-0.0232,-0.0214,-0.02,-0.0121,-0.0078,-0.0031,-0.0033,-0.0014,0.0018,-0.0002,0.0029,0.0032,0.0034,0.008,0.0088,0.0004,0.0004,0.0004,0.0005,0,-0.0397,-0.0404,-0.0411,-0.0401,-0.0388,-0.0388,-0.0347,-0.0329,-0.03,-0.0265,-0.0221,-0.0161,-0.011,-0.0091,-0.0063,-0.0022,-0.0005,0.0012,0.0041,0.0032,0.0081,0.009,-0.0,0.0001,0.0002,0.0002,0,0,-0.0443,-0.044,-0.0442,-0.045,-0.0417,-0.0414,-0.0395,-0.0363,-0.0348,-0.0296,-0.0269,-0.0204,-0.0164,-0.0132,-0.0084,-0.0037,0.001,-0.0009,-0.0005,0.0034,0.0117,0.0146,0.0158,0.003,0.0032,0.0033,0.0142,0,-0.0482,-0.0514,-0.0492,-0.0515,-0.0526,-0.0479,-0.0469,-0.0429,-0.0381,-0.0341,-0.0264,-0.0222,-0.018,-0.0156,-0.0101,-0.0018,0.0031,-0.0022,0.012,0.0125,0.0151,0.0169,0.0141,0.0237,0.015,0.0152,0.0153,0,-0.0523,-0.054,-0.0574,-0.0578,-0.0579,-0.0578,-0.0547,-0.0527,-0.045,-0.0413,-0.0342,-0.028,-0.0195,-0.0167,-0.0019,-0.0055,0.0022,0.0087,0.0093,0.0145,0.017,0.0233,0.0257,0.0168,0.0167,0.0166,0.0165,0,-0.0574,-0.0594,-0.0627,-0.0627,-0.0622,-0.0623,-0.061,-0.0549,-0.0533,-0.0447,-0.042,-0.031,-0.0251,-0.014,0.0002,-0.0009,0.0162,0.0168,0.0268,0.0271,0.0289,0.0292,0.0264,0.0264,0.0264,0.0264,0.0263,0,-0.0623,-0.0649,-0.0657,-0.0676,-0.0712,-0.0679,-0.0686,-0.0652,-0.0596,-0.0571,-0.046,-0.0409,-0.0243,-0.0122,-0.0004,0.0168,0.0165,0.0273,0.0306,0.027,0.0269,0.0241,0.0236,0.0268,0.0267,0.0266,0.0265,0,-0.0674,-0.0679,-0.072,-0.0733,-0.0739,-0.0761,-0.075,-0.0748,-0.0684,-0.0644,-0.0621,-0.0474,-0.0304,-0.0133,0.0064,0.0165,0.032,0.0377,0.0323,0.0347,0.0394,0.0385,0.05,0.0502,0.0504,0.0505,0.0506,0,-0.0703,-0.073,-0.077,-0.08,-0.0808,-0.0829,-0.0844,-0.08,-0.0786,-0.0677,-0.0662,-0.0492,-0.0354,-0.0047,0.0165,0.039,0.038,0.0478,0.0455,0.04,0.042,0.0409,0.0399,0.0459,0.0459,0.046,0.046,0,-0.0756,-0.0768,-0.0804,-0.0868,-0.0899,-0.093,-0.0937,-0.0942,-0.0875,-0.0816,-0.0699,-0.0578,-0.0272,-0.0009,0.0279,0.0396,0.0441,0.0497,0.0473,0.0398,0.0369,0.0386,0.0376,0.0466,0.0465,0.0465,0.0464,0.0464,-0.0787,-0.0829,-0.0876,-0.0932,-0.0974,-0.1012,-0.1024,-0.1001,-0.0968,-0.0848,-0.0734,-0.0521,-0.027,0.0153,0.0355,0.0531,0.0522,0.0557,0.0552,0.0548,0.0518,0.0493,0.0608,0.0608,0.0608,0.0608,0.0609,0,-0.0826,-0.0871,-0.0934,-0.1,-0.1051,-0.1056,-0.1073,-0.1047,-0.0987,-0.0843,-0.0693,-0.041,-0.011,0.0144,0.0439,0.061,0.0581,0.0622,0.0556,0.055,0.0545,0.0512,0.0603,0.0603,0.0604,0.0604,0,0,-0.0846,-0.0915,-0.0951,-0.1044,-0.1087,-0.1121,-0.1123,-0.1055,-0.0947,-0.0785,-0.0619,-0.0399,-0.0092,0.0115,0.0334,0.0485,0.0466,0.0485,0.0472,0.0364,0.0356,0.049,0.0432,0,0,0,0,0]}],[{"header":{"parameterUnit":"m.s-1","parameterCategory":2,"la1":30.2991,"la2":30.254,"lo1":-89.0895,"lo2":-89.0444,"dy":0.0017,"dx":0.0017,"nx":28,"ny":28,"refTime":"2023-09-18T21:00:00:Z","depth":"4","parameterNumber":2,"parameterNumberName":"U-component_of_CURRENTS"},"data":[0,0,0,0,0,0,0,0,0,0,0,0,0,0,0,0,0,0,0,0,0,0,0,0,0,0,0,0,0,0,0,0,0,0,0,0,0,0,0,0,0,0,0,0,0,0,0,0,0,0,0,0,0,0,0,0,0,0,-0.1581,-0.1581,0,-0.1649,-0.165,-0.1651,-0.1686,-0.1686,-0.1687,-0.1687,-0.1767,-0.1769,-0.1771,0,0,0,0,0,0,0,0,0,0,0,0,0,-0.1479,-0.1481,-0.158,-0.1581,-0.1583,-0.1649,-0.165,-0.1651,-0.1686,-0.1686,-0.1687,-0.1687,-0.1766,-0.1769,-0.1771,0,0,0,0,0,0,0,0,0,0,0,0,0,-0.1531,-0.1481,-0.158,-0.161,-0.1613,-0.1649,-0.165,-0.1651,-0.1686,-0.1686,-0.1687,-0.1687,-0.1766,-0.1769,-0.1771,-0.1783,0,0,-0.178,-0.1782,0,0,0,0,0,0,0,0,-0.1528,-0.1535,-0.1604,-0.1608,-0.1612,-0.1661,-0.1644,-0.1696,-0.1686,-0.1657,-0.1687,-0.1687,-0.1734,-0.1739,-0.1749,-0.1787,-0.179,-0.1781,-0.1782,-0.1784,-0.1784,0,0,0,0,0,0,0,-0.1525,-0.1532,-0.1606,-0.1605,-0.161,-0.1619,-0.1627,-0.1654,-0.1691,-0.1659,-0.1662,-0.1673,-0.1735,-0.1746,-0.1751,-0.1792,-0.178,-0.1783,-0.1785,-0.1786,-0.1883,-0.1883,0,0,0,0,0,0,-0.152,-0.1529,-0.1604,-0.1608,-0.1572,-0.1621,-0.1629,-0.1643,-0.1691,-0.1699,-0.1672,-0.1674,-0.1741,-0.1748,-0.1754,-0.1817,-0.1784,-0.1786,-0.1788,-0.1882,-0.1883,-0.1884,0,0,0,0,0,0,-0.1517,-0.1526,-0.1601,-0.1571,-0.1581,-0.1622,-0.1638,-0.1645,-0.1681,-0.1701,-0.1709,-0.1705,-0.1741,-0.175,-0.1796,-0.1818,-0.1788,-0.179,-0.1881,-0.1882,-0.1883,-0.1913,0,0,0,0,0,0,-0.1514,-0.1525,-0.1546,-0.1571,-0.1583,-0.1637,-0.1638,-0.1646,-0.1686,-0.169,-0.1731,-0.1738,-0.1742,-0.1791,-0.1799,-0.1822,-0.1793,-0.188,-0.1881,-0.1883,-0.1911,-0.1915,-0.1918,0,0,0,0,0,-0.151,-0.1534,-0.1547,-0.1557,-0.1607,-0.1639,-0.1646,-0.1674,-0.1688,-0.1708,-0.1734,-0.1738,-0.1806,-0.1795,-0.1803,-0.1827,-0.1879,-0.1881,-0.1883,-0.1909,-0.1914,-0.1918,0,0,0,0,0,0,-0.1502,-0.1541,-0.1555,-0.1591,-0.162,-0.1646,-0.1672,-0.1691,-0.1728,-0.1739,-0.1754,-0.1763,-0.1807,-0.1815,-0.1802,-0.1858,-0.1841,-0.1845,-0.1858,-0.1863,-0.1867,-0.1857,-0.1795,0,0,0,0,0,-0.151,-0.1538,-0.1572,-0.1602,-0.1619,-0.1651,-0.1674,-0.1694,-0.1724,-0.1742,-0.177,-0.1797,-0.1817,-0.184,-0.1858,-0.1898,-0.1885,-0.1917,-0.192,-0.1924,-0.1921,-0.1915,-0.1917,-0.189,-0.189,-0.189,0,0,-0.1516,-0.1541,-0.1559,-0.1603,-0.1628,-0.1659,-0.1666,-0.1707,-0.1737,-0.1745,-0.1801,-0.1815,-0.1829,-0.1866,-0.1887,-0.1881,-0.1926,-0.1926,-0.1929,-0.1924,-0.1917,-0.1919,-0.1922,-0.1891,-0.1891,-0.1891,0,0,-0.1528,-0.1564,-0.1589,-0.1618,-0.1664,-0.1683,-0.1701,-0.1744,-0.177,-0.182,-0.1825,-0.1852,-0.1901,-0.1905,-0.1914,-0.1952,-0.1943,-0.1965,-0.1985,-0.198,-0.1982,-0.1983,-0.1973,-0.1973,-0.1972,-0.1972,-0.1972,0,-0.1536,-0.157,-0.1601,-0.1631,-0.166,-0.1696,-0.1728,-0.1759,-0.1813,-0.1834,-0.1844,-0.1899,-0.1913,-0.194,-0.195,-0.1961,-0.1954,-0.1967,-0.1984,-0.1985,-0.1986,-0.1975,-0.1975,-0.1974,-0.1973,-0.1973,-0.1973,0,-0.1557,-0.1597,-0.1615,-0.1665,-0.1699,-0.1734,-0.1777,-0.1819,-0.1856,-0.188,-0.1927,-0.1942,-0.197,-0.198,-0.198,-0.1999,-0.1991,-0.1984,-0.1969,-0.199,-0.1977,-0.1977,-0.1976,-0.1975,-0.1975,-0.1975,0,0,-0.1535,-0.1615,-0.1624,-0.1657,-0.1722,-0.175,-0.1804,-0.1854,-0.1891,-0.1936,-0.1973,-0.2002,-0.2009,-0.2018,-0.2021,-0.202,-0.2022,-0.2011,-0.201,-0.1996,-0.2009,-0.188,-0.1867,-0.2021,-0.2021,-0.2021,-0.1998,0,-0.1543,-0.1603,-0.164,-0.1703,-0.1738,-0.1792,-0.1837,-0.189,-0.1932,-0.1978,-0.1995,-0.203,-0.2024,-0.2041,-0.2039,-0.203,-0.2022,-0.2029,-0.1995,-0.1994,-0.1873,-0.1862,-0.2021,-0.1998,-0.1997,-0.1997,-0.1997,0,-0.154,-0.1587,-0.1647,-0.173,-0.175,-0.1795,-0.1872,-0.1917,-0.1979,-0.2012,-0.2044,-0.206,-0.2076,-0.2063,-0.2051,-0.2059,-0.2035,-0.2019,-0.2018,-0.1884,-0.1863,-0.1972,-0.1996,-0.1996,-0.1996,-0.1996,-0.1996,0,-0.1499,-0.1586,-0.1636,-0.1667,-0.1764,-0.1807,-0.1858,-0.1929,-0.1962,-0.2031,-0.2057,-0.2083,-0.2095,-0.2078,-0.205,-0.2057,-0.202,-0.2025,-0.1884,-0.1875,-0.1988,-0.1986,-0.2,-0.2,-0.2,-0.2,-0.2,0,-0.1476,-0.1521,-0.163,-0.166,-0.172,-0.1798,-0.1856,-0.1912,-0.1979,-0.2,-0.2067,-0.207,-0.2099,-0.2083,-0.2056,-0.1955,-0.2023,-0.1873,-0.1852,-0.2002,-0.2002,-0.1987,-0.1986,-0.1999,-0.1999,-0.1999,-0.1999,0,-0.1412,-0.1487,-0.1551,-0.1666,-0.1701,-0.1744,-0.1841,-0.1872,-0.1956,-0.1983,-0.2004,-0.2061,-0.2037,-0.2041,-0.2009,-0.194,-0.1876,-0.1823,-0.1979,-0.197,-0.1738,-0.1739,-0.1665,-0.166,-0.1655,-0.1652,-0.1649,0,-0.1379,-0.1409,-0.1533,-0.1567,-0.1621,-0.1696,-0.1736,-0.184,-0.1861,-0.1948,-0.1939,-0.1964,-0.1979,-0.1826,-0.1856,-0.1788,-0.1763,-0.1726,-0.1729,-0.1712,-0.1701,-0.1708,-0.1715,-0.1642,-0.1641,-0.164,-0.1639,0,-0.1308,-0.1365,-0.1416,-0.1485,-0.1542,-0.1589,-0.1656,-0.1656,-0.1755,-0.1852,-0.1809,-0.1785,-0.1755,-0.1724,-0.1678,-0.1633,-0.1751,-0.1682,-0.1691,-0.1693,-0.1684,-0.1679,-0.169,-0.1625,-0.1627,-0.1628,-0.1629,0,-0.1247,-0.1262,-0.1334,-0.1375,-0.1442,-0.1451,-0.1506,-0.1522,-0.1554,-0.1655,-0.1632,-0.1664,-0.1726,-0.1641,-0.1601,-0.1545,-0.1524,-0.1474,-0.1493,-0.1509,-0.1468,-0.1434,-0.1264,0,0,0,0,0,-0.1176,-0.1178,-0.1214,-0.1253,-0.1312,-0.1345,-0.1432,-0.1489,-0.1585,-0.1506,-0.1562,-0.1524,-0.1468,-0.1491,-0.1397,-0.1535,-0.1535,-0.1421,-0.149,-0.1544,-0.1561,-0.1526,0,0,0,0,0,0,-0.113,-0.1163,-0.1171,-0.1132,-0.113,-0.1177,-0.1224,-0.1297,-0.1262,-0.1366,-0.1338,-0.1422,-0.1387,-0.1482,-0.1359,-0.1365,-0.1375,-0.1452,-0.1448,-0.1535,-0.155,-0.1564,-0.1533,0,0,0,0,0]},{"header":{"parameterUnit":"m.s-1","parameterCategory":2,"la1":30.2991,"la2":30.254,"lo1":-89.0895,"lo2":-89.0444,"dy":0.0017,"dx":0.0017,"nx":28,"ny":28,"refTime":"2023-09-18T21:00:00:Z","depth":"4","parameterNumber":3,"parameterNumberName":"V-component_of_CURRENTS"},"data":[0,0,0,0,0,0,0,0,0,0,0,0,0,0,0,0,0,0,0,0,0,0,0,0,0,0,0,0,0,0,0,0,0,0,0,0,0,0,0,0,0,0,0,0,0,0,0,0,0,0,0,0,0,0,0,0,0,0,-0.0191,-0.0191,0,-0.015,-0.015,-0.0149,-0.0115,-0.0115,-0.0114,-0.0114,-0.0028,-0.0026,-0.0024,0,0,0,0,0,0,0,0,0,0,0,0,0,-0.0208,-0.0208,-0.0191,-0.0191,-0.019,-0.015,-0.015,-0.0149,-0.0115,-0.0115,-0.0114,-0.0114,-0.0028,-0.0026,-0.0024,0,0,0,0,0,0,0,0,0,0,0,0,0,-0.0186,-0.0208,-0.0191,-0.017,-0.0167,-0.0151,-0.015,-0.0149,-0.0115,-0.0115,-0.0114,-0.0114,-0.0029,-0.0026,-0.0023,-0.0012,0,0,-0.0014,-0.0012,0,0,0,0,0,0,0,0,-0.0188,-0.0185,-0.0173,-0.0171,-0.0168,-0.0138,-0.0124,-0.0101,-0.0115,-0.0133,-0.0114,-0.0114,-0.0062,-0.0056,-0.0048,-0.0008,-0.0004,-0.0014,-0.0012,-0.001,-0.0009,0,0,0,0,0,0,0,-0.0189,-0.0187,-0.0174,-0.0173,-0.017,-0.0151,-0.0148,-0.0119,-0.0098,-0.0132,-0.013,-0.0127,-0.006,-0.0051,-0.0045,-0.0003,-0.0014,-0.0011,-0.0009,-0.0008,0.0051,0.005,0,0,0,0,0,0,-0.0199,-0.0189,-0.0175,-0.0173,-0.0179,-0.0151,-0.0147,-0.0147,-0.01,-0.0093,-0.0128,-0.0126,-0.0056,-0.0049,-0.0042,-0.0023,-0.001,-0.0007,-0.0006,0.0051,0.0051,0.005,0,0,0,0,0,0,-0.02,-0.0198,-0.0177,-0.018,-0.0177,-0.0152,-0.0152,-0.0147,-0.014,-0.0097,-0.0089,-0.0126,-0.0056,-0.0047,-0.0023,-0.002,-0.0006,-0.0003,0.0051,0.0051,0.005,0.0013,0,0,0,0,0,0,-0.02,-0.0199,-0.0205,-0.0181,-0.0177,-0.0172,-0.0152,-0.0146,-0.0139,-0.0136,-0.0093,-0.0084,-0.0055,-0.0028,-0.002,-0.0015,-0.0001,0.0052,0.0051,0.0051,0.0014,0.0011,0.0008,0,0,0,0,0,-0.0201,-0.0212,-0.0206,-0.0204,-0.0185,-0.0172,-0.0168,-0.0148,-0.014,-0.0139,-0.0112,-0.0086,-0.0026,-0.0026,-0.0016,-0.0011,0.0052,0.0051,0.0051,0.0016,0.0012,0.0008,0,0,0,0,0,0,-0.0223,-0.0209,-0.0202,-0.0208,-0.0194,-0.0167,-0.0168,-0.0153,-0.0132,-0.013,-0.0089,-0.0079,-0.0059,-0.0032,-0.0034,0.0003,0.0017,0.0018,-0.0012,-0.0016,-0.0019,-0.0024,0.0002,0,0,0,0,0,-0.0232,-0.0237,-0.0216,-0.0223,-0.0218,-0.0194,-0.0188,-0.0174,-0.0152,-0.0142,-0.0112,-0.0081,-0.0055,-0.0034,-0.0011,0.0013,0.0044,0.0022,0.0019,0.0016,0.0017,0.0066,0.0067,0.0048,0.0048,0.0048,0,0,-0.0244,-0.0236,-0.024,-0.0228,-0.0217,-0.0213,-0.0189,-0.0184,-0.0177,-0.0135,-0.012,-0.0094,-0.0054,-0.0032,-0.0019,-0.0006,0.0036,0.0015,0.0013,0.0015,0.0065,0.0067,0.0069,0.0048,0.0048,0.0048,0,0,-0.0269,-0.0263,-0.0274,-0.0264,-0.025,-0.0233,-0.0234,-0.021,-0.0195,-0.0179,-0.0148,-0.0119,-0.0083,-0.0047,-0.0025,-0.003,0.0012,-0.0026,-0.0035,0.0012,0.0014,0.0017,0.0052,0.0058,-0.002,-0.002,-0.002,0,-0.0285,-0.0294,-0.0275,-0.0279,-0.0275,-0.0245,-0.0252,-0.0231,-0.0202,-0.0188,-0.0181,-0.012,-0.0087,-0.0046,-0.0049,-0.0035,-0.0008,-0.0024,0.0009,0.0012,0.0015,0.0051,0.0058,-0.0021,-0.0021,-0.0021,-0.0021,0,-0.0311,-0.032,-0.0326,-0.032,-0.0312,-0.0314,-0.0284,-0.0272,-0.0253,-0.0227,-0.0192,-0.0147,-0.0106,-0.0092,-0.0071,-0.0032,-0.0022,-0.0007,0.0019,0.0015,0.0052,0.006,-0.0024,-0.0024,-0.0023,-0.0023,0,0,-0.0345,-0.0346,-0.0349,-0.0357,-0.0334,-0.0333,-0.0319,-0.0295,-0.0285,-0.0246,-0.0224,-0.0172,-0.0143,-0.0117,-0.008,-0.0036,0.0007,-0.0016,-0.0013,0.0019,0.0102,0.0085,0.0092,0.0027,0.0028,0.0029,0.0116,0,-0.0373,-0.0398,-0.0385,-0.0404,-0.0413,-0.038,-0.0374,-0.0345,-0.0309,-0.028,-0.0216,-0.0186,-0.0152,-0.0135,-0.0084,-0.0018,0.0027,-0.0019,0.01,0.0104,0.009,0.0101,0.0033,0.0123,0.0124,0.0126,0.0127,0,-0.04,-0.0416,-0.0445,-0.0452,-0.0453,-0.0458,-0.0437,-0.0424,-0.0364,-0.0336,-0.0278,-0.023,-0.0156,-0.0135,-0.0007,-0.004,0.0025,0.0078,0.0084,0.0088,0.0102,0.013,0.0142,0.0141,0.014,0.0139,0.0138,0,-0.0435,-0.0455,-0.0484,-0.0486,-0.0487,-0.0494,-0.0488,-0.0443,-0.0434,-0.0366,-0.0349,-0.0251,-0.0208,-0.0107,0.0006,-0.0,0.0141,0.0152,0.0201,0.02,0.0206,0.0203,0.024,0.024,0.024,0.0239,0.0239,0,-0.0464,-0.0489,-0.0509,-0.0525,-0.0562,-0.0539,-0.0554,-0.0529,-0.049,-0.0475,-0.0382,-0.0346,-0.02,-0.0101,0.0001,0.0126,0.0145,0.0202,0.0225,0.0186,0.018,0.0212,0.0207,0.0243,0.0242,0.0241,0.0241,0,-0.0493,-0.0506,-0.0546,-0.0569,-0.0581,-0.0605,-0.0614,-0.0616,-0.0571,-0.0546,-0.0529,-0.0412,-0.0278,-0.0131,0.0038,0.0111,0.0236,0.0274,0.0217,0.0235,0.0264,0.0256,0.0338,0.0338,0.0338,0.0339,0.0339,0,-0.0508,-0.0532,-0.0587,-0.0621,-0.0637,-0.0667,-0.0688,-0.0663,-0.0655,-0.0584,-0.0573,-0.0446,-0.0352,-0.0116,0.003,0.0231,0.0254,0.031,0.0292,0.0261,0.0276,0.0268,0.026,0.0339,0.0339,0.0339,0.0339,0,-0.0536,-0.0561,-0.0597,-0.0669,-0.071,-0.0748,-0.0766,-0.0768,-0.0725,-0.0694,-0.0592,-0.046,-0.0308,-0.012,0.0037,0.0177,0.0271,0.0313,0.0313,0.0297,0.0264,0.0276,0.0268,0.034,0.034,0.034,0.0339,0,-0.0556,-0.0593,-0.0647,-0.0704,-0.0765,-0.0802,-0.0808,-0.0784,-0.0768,-0.0678,-0.0647,-0.0469,-0.0361,-0.0149,-0.0006,0.0134,0.0164,0.0195,0.0203,0.0204,0.0135,0.0071,0.0112,0,0,0,0,0,-0.0569,-0.0612,-0.0675,-0.0739,-0.08,-0.0829,-0.085,-0.084,-0.0801,-0.0735,-0.0684,-0.0536,-0.0303,-0.0198,-0.0059,-0.0019,0.0172,0.0144,0.0208,0.0343,0.0342,0.0282,0,0,0,0,0,0,-0.0578,-0.0641,-0.0676,-0.0754,-0.0799,-0.0857,-0.0869,-0.0844,-0.0791,-0.0732,-0.06,-0.0521,-0.0289,-0.0378,-0.0061,-0.0019,0.0035,0.026,0.0262,0.0343,0.0343,0.0342,0.028,0,0,0,0,0]}]]